AIC124 VIDP-VQPR

Flight info

Callsign AIC124
Flight time 2h 9m
Altitude 35000
Route AKRIB7H AKRIB DCT KTM B345 TUMLI G348 SUBSU SUBSU1
Aircraft A320/M-SDE3FGHIRWY/LB1

Departure

Time 2026-05-09 08:49
Airport Indira Gandhi International Airport (VIDP)

Arrival

Time 2026-05-09 10:59
Airport Paro International Airport (VQPR)
Time Latitude Longitude Altitude Speed Heading
2026-05-09 08:22 28.55366 77.07979 746 ft 0 kts 327°
2026-05-09 08:34 28.55357 77.07986 747 ft 2 kts 327°
2026-05-09 08:34 28.55343 77.07996 747 ft 2 kts 327°
2026-05-09 08:34 28.55328 77.08007 748 ft 2 kts 319°
2026-05-09 08:34 28.55320 77.08023 747 ft 2 kts 247°
2026-05-09 08:35 28.55322 77.08028 747 ft 0 kts 229°
2026-05-09 08:39 28.55320 77.08022 751 ft 2 kts 248°
2026-05-09 08:40 28.55308 77.07987 749 ft 6 kts 245°
2026-05-09 08:40 28.55290 77.07952 750 ft 4 kts 239°
2026-05-09 08:40 28.55276 77.07924 751 ft 5 kts 239°
2026-05-09 08:40 28.55254 77.07873 750 ft 9 kts 251°
2026-05-09 08:41 28.55252 77.07825 751 ft 7 kts 278°
2026-05-09 08:41 28.55243 77.07759 747 ft 11 kts 226°
2026-05-09 08:41 28.55165 77.07724 742 ft 13 kts 217°
2026-05-09 08:41 28.55163 77.07613 751 ft 16 kts 283°
2026-05-09 08:42 28.55195 77.07475 751 ft 20 kts 285°
2026-05-09 08:42 28.55227 77.07341 750 ft 19 kts 283°
2026-05-09 08:42 28.55176 77.07239 748 ft 14 kts 229°
2026-05-09 08:42 28.55178 77.07165 750 ft 0 kts 281°
2026-05-09 08:43 28.55183 77.07142 749 ft 5 kts 285°
2026-05-09 08:43 28.55197 77.07082 751 ft 10 kts 283°
2026-05-09 08:43 28.55195 77.06992 747 ft 14 kts 240°
2026-05-09 08:44 28.55106 77.06952 747 ft 14 kts 194°
2026-05-09 08:44 28.54996 77.06924 749 ft 15 kts 194°
2026-05-09 08:44 28.54932 77.06907 747 ft 13 kts 193°
2026-05-09 08:44 28.54818 77.06928 750 ft 15 kts 114°
2026-05-09 08:45 28.54786 77.07052 751 ft 17 kts 108°
2026-05-09 08:45 28.54742 77.07128 750 ft 0 kts 170°
2026-05-09 08:45 28.54739 77.07129 749 ft 2 kts 170°
2026-05-09 08:46 28.54710 77.07134 749 ft 6 kts 169°
2026-05-09 08:46 28.54663 77.07168 751 ft 10 kts 133°
2026-05-09 08:46 28.54609 77.07243 751 ft 15 kts 129°
2026-05-09 08:46 28.54567 77.07313 747 ft 17 kts 121°
2026-05-09 08:47 28.54534 77.07406 748 ft 0 kts 103°
2026-05-09 08:48 28.54533 77.07411 746 ft 5 kts 103°
2026-05-09 08:48 28.54477 77.07668 745 ft 68 kts 104°
2026-05-09 08:48 28.54314 77.08425 752 ft 126 kts 103°
2026-05-09 08:49 28.54067 77.09577 752 ft 172 kts 104°
2026-05-09 08:49 28.53776 77.10943 1163 ft 183 kts 104°
2026-05-09 08:49 28.53468 77.12362 1794 ft 184 kts 105°
2026-05-09 08:49 28.52786 77.13636 2179 ft 204 kts 143°
2026-05-09 08:50 28.51374 77.14161 2514 ft 227 kts 171°
2026-05-09 08:50 28.49718 77.14202 2852 ft 244 kts 179°
2026-05-09 08:50 28.47997 77.14125 3447 ft 253 kts 181°
2026-05-09 08:50 28.46174 77.14071 3904 ft 268 kts 179°
2026-05-09 08:51 28.44284 77.14082 4636 ft 274 kts 177°
2026-05-09 08:51 28.42369 77.14153 5426 ft 276 kts 176°
2026-05-09 08:51 28.40461 77.14266 6210 ft 279 kts 175°
2026-05-09 08:51 28.38498 77.14410 6674 ft 285 kts 175°
2026-05-09 08:52 28.36521 77.14574 6821 ft 285 kts 175°
2026-05-09 08:52 28.34574 77.14744 7493 ft 270 kts 175°
2026-05-09 08:52 28.32720 77.14908 8414 ft 267 kts 176°
2026-05-09 08:52 28.30814 77.15074 8821 ft 284 kts 176°
2026-05-09 08:53 28.28778 77.14999 9164 ft 299 kts 191°
2026-05-09 08:53 28.26772 77.14351 9784 ft 303 kts 202°
2026-05-09 08:53 28.24751 77.13519 10156 ft 319 kts 202°
2026-05-09 08:53 28.22591 77.12632 10291 ft 341 kts 202°
2026-05-09 08:54 28.20303 77.11693 10409 ft 363 kts 202°
2026-05-09 08:54 28.17859 77.10695 10590 ft 380 kts 201°
2026-05-09 08:54 28.15344 77.09673 11051 ft 387 kts 201°
2026-05-09 08:54 28.12874 77.08674 12241 ft 367 kts 201°
2026-05-09 08:55 28.10503 77.07716 13165 ft 365 kts 202°
2026-05-09 08:55 28.08060 77.06725 13520 ft 372 kts 202°
2026-05-09 08:55 28.05696 77.05767 14728 ft 351 kts 201°
2026-05-09 08:55 28.03385 77.04829 15215 ft 361 kts 201°
2026-05-09 08:56 28.00978 77.03848 15342 ft 378 kts 201°
2026-05-09 08:56 27.98439 77.02810 15471 ft 395 kts 201°
2026-05-09 08:56 27.95822 77.01741 15592 ft 410 kts 201°
2026-05-09 08:56 27.93103 77.00633 15872 ft 419 kts 201°
2026-05-09 08:57 27.90339 76.99512 16336 ft 423 kts 201°
2026-05-09 08:57 27.87557 76.98388 16840 ft 426 kts 201°
2026-05-09 08:57 27.84755 76.97255 17330 ft 429 kts 200°
2026-05-09 08:57 27.81930 76.96115 17857 ft 432 kts 200°
2026-05-09 08:58 27.79086 76.94969 18330 ft 435 kts 200°
2026-05-09 08:58 27.76231 76.93815 18756 ft 438 kts 200°
2026-05-09 08:58 27.73348 76.92649 19171 ft 441 kts 200°
2026-05-09 08:58 27.70450 76.91478 19573 ft 444 kts 200°
2026-05-09 08:59 27.67554 76.90306 19979 ft 447 kts 200°
2026-05-09 08:59 27.64616 76.89118 20379 ft 450 kts 200°
2026-05-09 08:59 27.61646 76.87948 20769 ft 454 kts 197°
2026-05-09 08:59 27.58539 76.87294 21138 ft 457 kts 184°
2026-05-09 09:00 27.55356 76.87429 21501 ft 460 kts 170°
2026-05-09 09:00 27.52263 76.88370 21858 ft 461 kts 156°
2026-05-09 09:00 27.49437 76.90060 22207 ft 462 kts 143°
2026-05-09 09:00 27.47005 76.92414 22552 ft 461 kts 130°
2026-05-09 09:01 27.45102 76.95296 22890 ft 459 kts 116°
2026-05-09 09:01 27.43821 76.98561 23205 ft 456 kts 103°
2026-05-09 09:01 27.43204 77.02049 23518 ft 452 kts 91°
2026-05-09 09:01 27.43237 77.05546 23784 ft 450 kts 82°
2026-05-09 09:02 27.43457 77.09074 24053 ft 453 kts 82°
2026-05-09 09:02 27.43669 77.12616 24320 ft 455 kts 82°
2026-05-09 09:02 27.43875 77.16180 24580 ft 457 kts 82°
2026-05-09 09:02 27.44079 77.19760 24835 ft 460 kts 82°
2026-05-09 09:03 27.44282 77.23365 25097 ft 462 kts 82°
2026-05-09 09:03 27.44483 77.26944 25313 ft 465 kts 82°
2026-05-09 09:03 27.44689 77.30631 25549 ft 467 kts 82°
2026-05-09 09:03 27.44895 77.34288 25778 ft 470 kts 82°
2026-05-09 09:04 27.45104 77.37968 26004 ft 472 kts 82°
2026-05-09 09:04 27.45314 77.41636 26220 ft 474 kts 82°
2026-05-09 09:04 27.45524 77.45343 26431 ft 476 kts 82°
2026-05-09 09:04 27.45732 77.49077 26639 ft 478 kts 82°
2026-05-09 09:05 27.45941 77.52821 26831 ft 480 kts 82°
2026-05-09 09:05 27.46149 77.56570 27027 ft 482 kts 81°
2026-05-09 09:05 27.46356 77.60347 27266 ft 483 kts 82°
2026-05-09 09:05 27.46560 77.64109 27587 ft 481 kts 82°
2026-05-09 09:06 27.46761 77.67862 27888 ft 480 kts 82°
2026-05-09 09:06 27.46964 77.71616 28173 ft 480 kts 82°
2026-05-09 09:06 27.47165 77.75362 28452 ft 480 kts 82°
2026-05-09 09:06 27.47368 77.79107 28733 ft 480 kts 81°
2026-05-09 09:07 27.47568 77.82809 29007 ft 480 kts 81°
2026-05-09 09:07 27.47772 77.86586 29292 ft 480 kts 81°
2026-05-09 09:07 27.47970 77.90335 29579 ft 480 kts 81°
2026-05-09 09:07 27.48165 77.94080 29862 ft 479 kts 81°
2026-05-09 09:08 27.48361 77.97831 30144 ft 479 kts 81°
2026-05-09 09:08 27.48556 78.01570 30419 ft 477 kts 81°
2026-05-09 09:08 27.48750 78.05302 30676 ft 477 kts 81°
2026-05-09 09:08 27.48939 78.09029 30923 ft 476 kts 81°
2026-05-09 09:09 27.49129 78.12750 31158 ft 476 kts 81°
2026-05-09 09:09 27.49319 78.16461 31394 ft 476 kts 81°
2026-05-09 09:09 27.49510 78.20174 31626 ft 476 kts 80°
2026-05-09 09:09 27.49700 78.23889 31873 ft 476 kts 80°
2026-05-09 09:10 27.49891 78.27610 32123 ft 475 kts 80°
2026-05-09 09:10 27.50078 78.31325 32374 ft 475 kts 80°
2026-05-09 09:10 27.50261 78.35033 32628 ft 474 kts 80°
2026-05-09 09:10 27.50444 78.38738 32869 ft 474 kts 79°
2026-05-09 09:11 27.50626 78.42399 33105 ft 474 kts 79°
2026-05-09 09:11 27.50810 78.46147 33342 ft 473 kts 79°
2026-05-09 09:11 27.50991 78.49840 33579 ft 473 kts 79°
2026-05-09 09:11 27.51170 78.53551 33816 ft 473 kts 79°
2026-05-09 09:12 27.51343 78.57182 34017 ft 473 kts 79°
2026-05-09 09:12 27.51518 78.60927 34213 ft 473 kts 79°
2026-05-09 09:12 27.51692 78.64624 34398 ft 473 kts 79°
2026-05-09 09:12 27.51866 78.68279 34587 ft 473 kts 79°
2026-05-09 09:13 27.52044 78.71977 34765 ft 473 kts 79°
2026-05-09 09:13 27.52397 78.79426 34847 ft 479 kts 79°
2026-05-09 09:14 27.52737 78.86926 34849 ft 480 kts 80°
2026-05-09 09:14 27.53075 78.94429 34849 ft 481 kts 80°
2026-05-09 09:15 27.53412 79.01946 34852 ft 480 kts 80°
2026-05-09 09:15 27.53755 79.09467 34879 ft 481 kts 81°
2026-05-09 09:16 27.54085 79.16999 34864 ft 481 kts 81°
2026-05-09 09:16 27.54571 79.28311 34860 ft 482 kts 81°
2026-05-09 09:17 27.54887 79.35851 34856 ft 482 kts 81°
2026-05-09 09:17 27.55202 79.43395 34878 ft 482 kts 81°
2026-05-09 09:18 27.55520 79.50946 34862 ft 482 kts 82°
2026-05-09 09:18 27.55831 79.58498 34852 ft 483 kts 82°
2026-05-09 09:19 27.56140 79.66058 34847 ft 483 kts 82°
2026-05-09 09:19 27.56436 79.73593 34844 ft 483 kts 82°
2026-05-09 09:20 27.56733 79.81165 34861 ft 483 kts 82°
2026-05-09 09:20 27.57029 79.88733 34857 ft 484 kts 83°
2026-05-09 09:21 27.57320 79.96311 34852 ft 484 kts 83°
2026-05-09 09:21 27.57603 80.03892 34849 ft 484 kts 83°
2026-05-09 09:22 27.57884 80.11441 34848 ft 484 kts 83°
2026-05-09 09:22 27.58164 80.19018 34863 ft 484 kts 84°
2026-05-09 09:23 27.58432 80.26600 34858 ft 484 kts 84°
2026-05-09 09:23 27.58702 80.34162 34857 ft 483 kts 84°
2026-05-09 09:24 27.58973 80.41737 34852 ft 483 kts 84°
2026-05-09 09:24 27.59239 80.49227 34848 ft 483 kts 84°
2026-05-09 09:25 27.59491 80.56794 34855 ft 483 kts 85°
2026-05-09 09:25 27.59733 80.64348 34856 ft 482 kts 85°
2026-05-09 09:26 27.59982 80.71900 34856 ft 482 kts 85°
2026-05-09 09:26 27.60222 80.79450 34855 ft 482 kts 85°
2026-05-09 09:27 27.60456 80.86995 34854 ft 482 kts 85°
2026-05-09 09:27 27.60695 80.94531 34862 ft 482 kts 85°
2026-05-09 09:28 27.60893 81.00859 34859 ft 482 kts 85°
2026-05-09 09:28 27.61127 81.08411 34856 ft 483 kts 85°
2026-05-09 09:29 27.61355 81.15974 34857 ft 483 kts 85°
2026-05-09 09:29 27.61576 81.23539 34854 ft 483 kts 85°
2026-05-09 09:30 27.61785 81.31036 34858 ft 482 kts 86°
2026-05-09 09:30 27.61993 81.38633 34855 ft 481 kts 86°
2026-05-09 09:31 27.62199 81.46119 34851 ft 481 kts 86°
2026-05-09 09:32 27.62509 81.57450 34838 ft 486 kts 86°
2026-05-09 09:32 27.63131 81.65039 34839 ft 489 kts 81°
2026-05-09 09:33 27.63579 81.72731 34837 ft 490 kts 92°
2026-05-09 09:33 27.63153 81.80259 34830 ft 481 kts 91°
2026-05-09 09:34 27.63099 81.87776 34831 ft 478 kts 87°
2026-05-09 09:34 27.63367 81.95244 34830 ft 477 kts 85°
2026-05-09 09:36 27.64129 82.25167 34833 ft 477 kts 87°
2026-05-09 09:37 27.64292 82.32642 34836 ft 477 kts 87°
2026-05-09 09:37 27.64448 82.40121 34842 ft 477 kts 87°
2026-05-09 09:38 27.64597 82.47609 34847 ft 478 kts 88°
2026-05-09 09:38 27.64747 82.55106 34844 ft 478 kts 88°
2026-05-09 09:39 27.64892 82.62605 34847 ft 478 kts 88°
2026-05-09 09:39 27.65031 82.70096 34847 ft 478 kts 88°
2026-05-09 09:40 27.65163 82.77594 34861 ft 478 kts 88°
2026-05-09 09:40 27.65290 82.85063 34864 ft 478 kts 88°
2026-05-09 09:41 27.65417 82.92557 34875 ft 478 kts 88°
2026-05-09 09:41 27.65543 83.00049 34852 ft 478 kts 88°
2026-05-09 09:42 27.65668 83.07546 34862 ft 478 kts 88°
2026-05-09 09:42 27.65785 83.15049 34863 ft 478 kts 88°
2026-05-09 09:43 27.65891 83.22566 34872 ft 479 kts 89°
2026-05-09 09:43 27.65999 83.30056 34870 ft 480 kts 89°
2026-05-09 09:44 27.66104 83.37580 34876 ft 480 kts 89°
2026-05-09 09:44 27.66200 83.45115 34882 ft 480 kts 89°
2026-05-09 09:45 27.66291 83.52652 34877 ft 481 kts 89°
2026-05-09 09:45 27.66379 83.60193 34880 ft 481 kts 89°
2026-05-09 09:46 27.66474 83.67748 34881 ft 482 kts 89°
2026-05-09 09:46 27.66567 83.75315 34885 ft 482 kts 89°
2026-05-09 09:47 27.66643 83.82873 34892 ft 482 kts 89°
2026-05-09 09:47 27.66717 83.90439 34895 ft 482 kts 89°
2026-05-09 09:48 27.66786 83.98006 34890 ft 483 kts 90°
2026-05-09 09:48 27.66851 84.05583 34883 ft 483 kts 90°
2026-05-09 09:49 27.66914 84.13137 34893 ft 483 kts 90°
2026-05-09 09:49 27.66971 84.20722 34895 ft 484 kts 90°
2026-05-09 09:50 27.67026 84.28323 34906 ft 484 kts 90°
2026-05-09 09:50 27.67075 84.35922 34896 ft 485 kts 90°
2026-05-09 09:51 27.67125 84.43533 34912 ft 486 kts 90°
2026-05-09 09:51 27.67171 84.51163 34914 ft 486 kts 90°
2026-05-09 09:52 27.67211 84.58796 34935 ft 487 kts 90°
2026-05-09 09:52 27.67251 84.66428 34942 ft 487 kts 90°
2026-05-09 09:53 27.67285 84.74045 34937 ft 490 kts 91°
2026-05-09 09:53 27.67307 84.81750 34936 ft 492 kts 91°
2026-05-09 09:54 27.67319 84.89523 34965 ft 493 kts 91°
2026-05-09 09:54 27.67336 84.97258 35001 ft 494 kts 91°
2026-05-09 09:55 27.67356 85.05015 34999 ft 495 kts 91°
2026-05-09 09:55 27.67360 85.12775 35017 ft 495 kts 91°
2026-05-09 09:56 27.67359 85.20540 35017 ft 495 kts 91°
2026-05-09 09:56 27.67364 85.28326 35048 ft 496 kts 91°
2026-05-09 09:57 27.67100 85.36081 35077 ft 494 kts 101°
2026-05-09 09:57 27.65689 85.43642 35076 ft 493 kts 104°
2026-05-09 09:58 27.64251 85.51210 35070 ft 493 kts 104°
2026-05-09 09:58 27.62817 85.58780 35058 ft 494 kts 104°
2026-05-09 09:59 27.61375 85.66358 35055 ft 494 kts 104°
2026-05-09 09:59 27.59930 85.73932 35078 ft 494 kts 104°
2026-05-09 10:00 27.58477 85.81486 35075 ft 495 kts 104°
2026-05-09 10:00 27.57012 85.89058 35104 ft 495 kts 105°
2026-05-09 10:01 27.55544 85.96630 35104 ft 494 kts 104°
2026-05-09 10:01 27.54078 86.04193 35106 ft 494 kts 104°
2026-05-09 10:02 27.52607 86.11756 35059 ft 494 kts 105°
2026-05-09 10:02 27.51144 86.19251 35088 ft 494 kts 105°
2026-05-09 10:03 27.49658 86.26807 35089 ft 494 kts 105°
2026-05-09 10:03 27.48191 86.34409 35130 ft 494 kts 105°
2026-05-09 10:04 27.46757 86.41972 35126 ft 494 kts 105°
2026-05-09 10:04 27.45325 86.49481 35155 ft 493 kts 105°
2026-05-09 10:05 27.43860 86.57079 35155 ft 494 kts 105°
2026-05-09 10:05 27.42392 86.64634 35091 ft 495 kts 105°
2026-05-09 10:06 27.40932 86.72149 35093 ft 495 kts 105°
2026-05-09 10:06 27.39453 86.79775 35107 ft 496 kts 105°
2026-05-09 10:07 27.37976 86.87354 35108 ft 496 kts 105°
2026-05-09 10:07 27.36491 86.94937 35104 ft 496 kts 105°
2026-05-09 10:08 27.35003 87.02520 35104 ft 497 kts 106°
2026-05-09 10:08 27.33516 87.10042 35103 ft 497 kts 105°
2026-05-09 10:09 27.32230 87.16383 35043 ft 495 kts 109°
2026-05-09 10:09 27.29519 87.23395 35043 ft 485 kts 126°
2026-05-09 10:10 27.25960 87.29828 35049 ft 485 kts 126°
2026-05-09 10:10 27.21837 87.37319 35044 ft 484 kts 127°
2026-05-09 10:11 27.18872 87.42706 35026 ft 484 kts 127°
2026-05-09 10:11 27.15330 87.49122 35029 ft 484 kts 127°
2026-05-09 10:12 27.11767 87.55541 34996 ft 485 kts 128°
2026-05-09 10:12 27.08192 87.61977 34977 ft 487 kts 127°
2026-05-09 10:13 27.04613 87.68440 34979 ft 488 kts 127°
2026-05-09 10:13 27.01021 87.74900 34996 ft 488 kts 129°
2026-05-09 10:14 26.97428 87.81339 34943 ft 489 kts 128°
2026-05-09 10:14 26.93820 87.87806 34954 ft 489 kts 129°
2026-05-09 10:15 26.90218 87.94262 34965 ft 489 kts 129°
2026-05-09 10:15 26.86609 88.00718 34960 ft 489 kts 129°
2026-05-09 10:16 26.83000 88.07166 34899 ft 489 kts 130°
2026-05-09 10:16 26.79376 88.13611 34904 ft 489 kts 130°
2026-05-09 10:17 26.75744 88.20061 34910 ft 491 kts 130°
2026-05-09 10:17 26.72654 88.26878 34854 ft 507 kts 112°
2026-05-09 10:17 26.71974 88.30790 34856 ft 518 kts 99°
2026-05-09 10:18 26.72017 88.34839 34861 ft 526 kts 86°
2026-05-09 10:18 26.72804 88.38852 34859 ft 531 kts 72°
2026-05-09 10:18 26.74322 88.42612 34892 ft 533 kts 59°
2026-05-09 10:19 26.78198 88.49693 34900 ft 534 kts 58°
2026-05-09 10:19 26.82097 88.56787 34903 ft 535 kts 58°
2026-05-09 10:20 26.85979 88.63900 34842 ft 536 kts 58°
2026-05-09 10:20 26.87917 88.67460 34672 ft 535 kts 58°
2026-05-09 10:20 26.89854 88.71016 34447 ft 534 kts 58°
2026-05-09 10:20 26.91785 88.74562 34222 ft 533 kts 58°
2026-05-09 10:21 26.93712 88.78108 34016 ft 532 kts 58°
2026-05-09 10:21 26.95634 88.81651 33367 ft 532 kts 58°
2026-05-09 10:21 26.97576 88.85232 32068 ft 540 kts 58°
2026-05-09 10:21 26.99500 88.88824 31293 ft 535 kts 58°
2026-05-09 10:22 27.01343 88.92405 30336 ft 534 kts 59°
2026-05-09 10:22 27.03145 88.96030 29332 ft 524 kts 60°
2026-05-09 10:22 27.04841 88.99522 29087 ft 495 kts 60°
2026-05-09 10:22 27.06331 89.02606 28970 ft 469 kts 60°
2026-05-09 10:23 27.07860 89.05748 28839 ft 444 kts 60°
2026-05-09 10:23 27.09316 89.08708 28680 ft 423 kts 59°
2026-05-09 10:23 27.10724 89.11542 28497 ft 412 kts 59°
2026-05-09 10:23 27.12118 89.14325 28372 ft 406 kts 59°
2026-05-09 10:24 27.13295 89.17191 28198 ft 404 kts 74°
2026-05-09 10:24 27.13756 89.20267 27863 ft 399 kts 91°
2026-05-09 10:24 27.13525 89.23355 27298 ft 398 kts 100°
2026-05-09 10:24 27.13158 89.26436 26771 ft 399 kts 99°
2026-05-09 10:25 27.12797 89.29527 26255 ft 400 kts 99°
2026-05-09 10:25 27.12440 89.32629 25738 ft 401 kts 99°
2026-05-09 10:25 27.12085 89.35733 25220 ft 402 kts 98°
2026-05-09 10:25 27.11734 89.38848 24702 ft 402 kts 98°
2026-05-09 10:26 27.11636 89.42006 23801 ft 414 kts 83°
2026-05-09 10:26 27.12339 89.45194 22794 ft 425 kts 69°
2026-05-09 10:26 27.13698 89.48135 21754 ft 431 kts 50°
2026-05-09 10:26 27.16008 89.50348 20848 ft 434 kts 26°
2026-05-09 10:27 27.18797 89.51285 20614 ft 417 kts
2026-05-09 10:27 27.21646 89.50958 20343 ft 403 kts 340°
2026-05-09 10:27 27.24029 89.49448 20086 ft 390 kts 316°
2026-05-09 10:27 27.25631 89.47057 19644 ft 383 kts 292°
2026-05-09 10:28 27.26308 89.44191 19162 ft 379 kts 279°
2026-05-09 10:28 27.26476 89.41261 18715 ft 375 kts 261°
2026-05-09 10:28 27.25947 89.38423 18375 ft 368 kts 257°
2026-05-09 10:28 27.25421 89.35624 17968 ft 364 kts 262°
2026-05-09 10:29 27.25599 89.32816 17348 ft 361 kts 288°
2026-05-09 10:29 27.26855 89.30472 16962 ft 345 kts 315°
2026-05-09 10:29 27.28841 89.29107 16624 ft 331 kts 344°
2026-05-09 10:29 27.31074 89.28982 16314 ft 317 kts 14°
2026-05-09 10:30 27.33092 89.29781 16075 ft 302 kts 18°
2026-05-09 10:30 27.35127 89.30116 15610 ft 292 kts 352°
2026-05-09 10:30 27.36986 89.29394 15241 ft 279 kts 327°
2026-05-09 10:30 27.38581 89.28217 14880 ft 270 kts 325°
2026-05-09 10:31 27.40116 89.27048 14531 ft 263 kts 325°
2026-05-09 10:31 27.41677 89.26071 14250 ft 252 kts 340°
2026-05-09 10:31 27.43336 89.25737 14009 ft 232 kts
2026-05-09 10:31 27.44854 89.26003 13927 ft 212 kts 19°
2026-05-09 10:32 27.46139 89.26723 13857 ft 200 kts 36°
2026-05-09 10:32 27.47105 89.27726 13786 ft 187 kts 52°
2026-05-09 10:32 27.47792 89.28933 13749 ft 179 kts 67°
2026-05-09 10:32 27.48181 89.30231 13632 ft 173 kts 81°
2026-05-09 10:33 27.48278 89.31563 13500 ft 169 kts 95°
2026-05-09 10:33 27.48092 89.32864 13371 ft 167 kts 107°
2026-05-09 10:33 27.47651 89.34064 13264 ft 165 kts 120°
2026-05-09 10:33 27.46979 89.35119 13122 ft 167 kts 134°
2026-05-09 10:34 27.46109 89.35977 13021 ft 167 kts 148°
2026-05-09 10:34 27.44376 89.37695 12803 ft 169 kts 125°
2026-05-09 10:34 27.43880 89.38880 12696 ft 170 kts 108°
2026-05-09 10:35 27.43468 89.40142 12549 ft 169 kts 120°
2026-05-09 10:35 27.42831 89.41223 12414 ft 168 kts 131°
2026-05-09 10:35 27.41891 89.42037 12035 ft 173 kts 154°
2026-05-09 10:35 27.40772 89.42596 11585 ft 178 kts 158°
2026-05-09 10:36 27.39658 89.43120 11603 ft 175 kts 159°
2026-05-09 10:36 27.38480 89.43619 11870 ft 180 kts 161°
2026-05-09 10:36 27.37275 89.44099 11975 ft 190 kts 161°
2026-05-09 10:36 27.36001 89.44596 12085 ft 200 kts 161°
2026-05-09 10:37 27.34734 89.45277 12362 ft 205 kts 144°
2026-05-09 10:37 27.33721 89.46410 12712 ft 207 kts 126°
2026-05-09 10:37 27.33102 89.47853 13065 ft 210 kts 107°
2026-05-09 10:37 27.32934 89.49325 13391 ft 213 kts 87°
2026-05-09 10:38 27.32975 89.51014 13697 ft 216 kts 98°
2026-05-09 10:38 27.32474 89.52602 14012 ft 218 kts 123°
2026-05-09 10:38 27.31409 89.53794 14332 ft 218 kts 149°
2026-05-09 10:38 27.29984 89.54362 14647 ft 219 kts 175°
2026-05-09 10:39 27.28480 89.54188 14991 ft 219 kts 200°
2026-05-09 10:39 27.27119 89.53434 15337 ft 219 kts 208°
2026-05-09 10:39 27.25767 89.52633 15688 ft 220 kts 206°
2026-05-09 10:39 27.24330 89.52016 15995 ft 222 kts 196°
2026-05-09 10:40 27.22816 89.51664 16110 ft 224 kts 187°
2026-05-09 10:40 27.21263 89.51600 16118 ft 223 kts 177°
2026-05-09 10:40 27.19698 89.51778 16122 ft 223 kts 174°
2026-05-09 10:40 27.18152 89.51966 16124 ft 223 kts 174°
2026-05-09 10:41 27.16604 89.52147 16124 ft 224 kts 174°
2026-05-09 10:41 27.15074 89.52325 16124 ft 224 kts 174°
2026-05-09 10:41 27.13521 89.52508 16124 ft 224 kts 174°
2026-05-09 10:41 27.11970 89.52689 16124 ft 224 kts 174°
2026-05-09 10:42 27.10419 89.52870 16124 ft 224 kts 174°
2026-05-09 10:42 27.08870 89.52731 16116 ft 221 kts 201°
2026-05-09 10:42 27.07631 89.51778 16123 ft 221 kts 231°
2026-05-09 10:42 27.06991 89.50244 16124 ft 221 kts 262°
2026-05-09 10:43 27.07096 89.48531 16136 ft 222 kts 281°
2026-05-09 10:43 27.07288 89.46784 16129 ft 222 kts 274°
2026-05-09 10:43 27.07405 89.45058 16120 ft 222 kts 281°
2026-05-09 10:43 27.07798 89.43392 16125 ft 221 kts 285°
2026-05-09 10:44 27.08370 89.41804 16114 ft 221 kts 305°
2026-05-09 10:44 27.09510 89.40666 16118 ft 222 kts 334°
2026-05-09 10:44 27.11009 89.40303 16122 ft 223 kts
2026-05-09 10:44 27.12475 89.40829 16121 ft 225 kts 34°
2026-05-09 10:45 27.13522 89.42104 16121 ft 226 kts 63°
2026-05-09 10:46 27.12331 89.48753 16123 ft 226 kts 90°
2026-05-09 10:46 27.12702 89.50460 16123 ft 226 kts 60°
2026-05-09 10:46 27.13780 89.51712 16122 ft 225 kts 25°
2026-05-09 10:46 27.15295 89.51940 16125 ft 223 kts 349°
2026-05-09 10:47 27.16731 89.51317 16125 ft 223 kts 328°
2026-05-09 10:47 27.17944 89.50238 16124 ft 223 kts 314°
2026-05-09 10:47 27.18917 89.48892 16123 ft 222 kts 302°
2026-05-09 10:47 27.19670 89.47384 16109 ft 222 kts 298°
2026-05-09 10:48 27.20407 89.45867 16113 ft 222 kts 298°
2026-05-09 10:48 27.21156 89.44343 16119 ft 222 kts 298°
2026-05-09 10:48 27.21905 89.42826 16122 ft 222 kts 298°
2026-05-09 10:48 27.22656 89.41305 16122 ft 223 kts 299°
2026-05-09 10:49 27.23116 89.40274 16124 ft 223 kts 292°
2026-05-09 10:49 27.23610 89.38624 16071 ft 225 kts 287°
2026-05-09 10:49 27.24072 89.36907 15444 ft 232 kts 287°
2026-05-09 10:49 27.24565 89.35161 14743 ft 234 kts 292°
2026-05-09 10:50 27.25345 89.33597 14341 ft 223 kts 306°
2026-05-09 10:50 27.26349 89.32355 14097 ft 208 kts 319°
2026-05-09 10:50 27.27487 89.31435 13843 ft 199 kts 330°
2026-05-09 10:50 27.28738 89.30811 13623 ft 195 kts 342°
2026-05-09 10:51 27.30061 89.30492 13601 ft 195 kts 354°
2026-05-09 10:51 27.31420 89.30478 13618 ft 190 kts
2026-05-09 10:51 27.32686 89.30659 13602 ft 180 kts
2026-05-09 10:51 27.33923 89.30620 13599 ft 178 kts 352°
2026-05-09 10:52 27.35186 89.30307 13584 ft 194 kts 341°
2026-05-09 10:52 27.36446 89.29679 13603 ft 201 kts 329°
2026-05-09 10:52 27.37619 89.28813 13601 ft 202 kts 326°
2026-05-09 10:52 27.38791 89.27935 13600 ft 203 kts 326°
2026-05-09 10:53 27.39964 89.27061 13594 ft 198 kts 326°
2026-05-09 10:53 27.41091 89.26283 13612 ft 186 kts 334°
2026-05-09 10:53 27.42315 89.25817 13601 ft 185 kts 348°
2026-05-09 10:53 27.43597 89.25718 13604 ft 185 kts
2026-05-09 10:54 27.44861 89.25992 13602 ft 186 kts 18°
2026-05-09 10:54 27.46016 89.26620 13593 ft 187 kts 33°
2026-05-09 10:54 27.47003 89.27567 13474 ft 185 kts 48°
2026-05-09 10:54 27.47729 89.28743 13168 ft 182 kts 63°
2026-05-09 10:55 27.48144 89.30013 13081 ft 160 kts 77°
2026-05-09 10:55 27.48286 89.31190 12855 ft 151 kts 89°
2026-05-09 10:55 27.48203 89.32417 12304 ft 161 kts 102°
2026-05-09 10:55 27.47873 89.33631 11844 ft 167 kts 115°
2026-05-09 10:56 27.47274 89.34748 11513 ft 162 kts 128°
2026-05-09 10:56 27.46604 89.35739 11137 ft 163 kts 134°
2026-05-09 10:56 27.45661 89.36465 10717 ft 165 kts 152°
2026-05-09 10:56 27.44751 89.37252 10324 ft 166 kts 133°
2026-05-09 10:57 27.44102 89.38317 9917 ft 167 kts 116°
2026-05-09 10:57 27.43650 89.39560 9267 ft 181 kts 112°
2026-05-09 10:57 27.43008 89.40814 8649 ft 186 kts 133°
2026-05-09 10:57 27.41933 89.41580 7965 ft 191 kts 162°
2026-05-09 10:58 27.40723 89.42249 7422 ft 184 kts 145°
2026-05-09 10:58 27.39651 89.42866 7437 ft 169 kts 158°
2026-05-09 10:59 27.39572 89.42845 7324 ft 4 kts 330°
2026-05-09 10:59 27.39600 89.42828 7325 ft 8 kts 331°